Theta_e
306 307 307 306 306 309 310 312 314 316 318 311 314 315 317 317 314 312 305 307 307 308 310 309 308 308 312 319 320 315 315 316 319 323 324 321 321 319 317 317 319 320 319 321 322 322 322
304 305 306 305 306 307 308 308 309 313 317 316 311 314 315 316 315 314 308 308 307 309 311 311 310 311 310 312 312 318 315 316 317 322 324 322 321 320 319 318 317 318 318 319 319 321 322
303 303 303 304 304 305 305 306 306 308 314 316 313 313 314 315 315 314 311 306 309 311 310 309 310 309 312 310 310 310 316 316 316 318 318 316 318 319 319 318 319 320 319 317 318 319 319
302 303 303 302 302 302 303 303 304 305 310 314 315 312 314 314 315 313 312 307 310 312 313 310 308 309 309 310 309 310 311 315 315 315 315 315 317 318 319 318 318 320 319 320 317 317 319
302 302 302 301 302 302 302 302 303 304 305 310 313 313 314 314 315 314 312 307 308 311 312 313 312 310 311 311 311 309 311 312 314 314 315 315 314 315 316 317 317 318 316 318 317 317 319
302 301 301 300 301 301 301 301 301 303 304 306 309 313 313 314 315 314 311 307 309 310 311 312 311 311 311 311 311 310 310 311 313 313 313 313 313 314 314 314 313 316 318 319 319 318 315
301 300 300 300 300 300 299 300 301 303 304 305 306 310 313 313 315 315 310 310 310 309 311 311 311 311 310 311 311 311 310 310 312 312 311 311 313 316 315 313 314 315 315 317 317 316 316
300 300 301 301 300 299 299 300 301 301 302 305 305 306 312 314 316 315 310 309 309 308 309 310 311 310 311 311 311 311 310 311 311 311 309 311 311 311 312 313 314 314 315 315 313 313 314
301 301 300 300 300 299 299 299 301 300 302 303 304 304 308 313 316 314 311 308 309 309 308 308 309 310 311 310 310 311 311 311 310 310 311 311 310 309 311 311 313 312 312 311 311 311 311
300 301 300 299 299 299 299 298 299 300 302 303 303 303 305 312 315 313 310 309 309 309 300 305 309 310 310 310 310 310 311 311 310 311 310 311 310 310 310 310 310 312 310 312 313 313 312
300 300 300 299 299 299 298 299 299 300 301 302 301 302 306 311 314 312 312 310 308 308 303 307 309 310 310 310 311 311 311 311 310 309 310 311 310 310 311 310 309 310 310 311 312 314 312
300 300 299 299 299 298 298 299 300 300 301 302 303 304 305 306 312 313 311 308 309 300 302 309 309 312 311 310 312 311 311 311 311 311 310 309 309 309 309 309 309 310 310 311 311 313 314
299 299 298 298 298 298 298 299 298 299 300 303 304 305 304 305 309 312 309 309 307 305 308 310 311 310 312 312 312 312 312 312 313 314 313 312 311 310 310 310 308 310 311 313 316 315 312
299 298 298 297 298 298 298 298 298 299 300 303 304 305 305 304 304 311 307 306 309 306 307 309 309 309 310 311 311 313 313 314 312 312 313 313 309 311 309 310 310 309 310 312 313 313 310
298 298 298 297 297 298 298 298 299 300 301 303 305 306 304 304 306 310 308 310 308 306 309 310 309 309 310 310 311 311 313 313 311 312 312 312 308 309 309 309 311 313 311 309 311 310 313
299 298 297 297 297 297 297 298 299 300 301 303 304 305 304 303 308 308 308 308 306 307 309 310 311 310 312 312 311 313 312 309 311 311 309 310 311 307 309 309 309 311 311 314 312 313 312
297 297 297 297 297 297 297 298 300 301 301 303 303 304 304 304 309 308 310 308 306 310 311 311 311 311 312 312 311 312 309 308 308 308 309 309 310 308 310 310 310 311 312 312 313 314 311
297 297 297 297 297 296 297 297 299 301 302 303 304 305 306 305 308 307 310 306 309 310 312 313 312 313 312 310 311 309 308 307 308 308 310 310 311 309 308 307 309 309 310 310 312 308 308
297 297 297 297 296 296 296 298 299 301 302 301 304 307 308 306 309 310 309 309 310 311 312 313 313 313 313 312 311 309 308 308 308 308 309 309 312 313 311 311 311 312 311 310 310 310 309
296 296 297 296 296 296 296 298 299 301 302 302 305 307 309 306 308 309 309 309 310 310 311 313 314 313 313 314 310 310 309 309 308 308 309 309 312 312 312 314 312 314 312 311 311 312 311
296 296 297 296 296 296 296 297 299 301 302 304 307 306 304 306 308 309 309 309 310 312 311 311 314 313 314 316 314 312 309 309 309 309 311 310 312 312 312 311 311 313 313 313 311 311 311
295 296 296 296 296 297 296 297 300 301 302 306 308 309 306 306 309 308 308 311 311 311 313 313 313 313 314 316 314 312 312 311 312 310 311 311 312 311 312 312 313 314 312 312 314 311 310
296 296 296 296 296 296 296 297 299 300 302 302 303 307 309 309 311 309 309 310 309 312 312 312 312 314 314 315 314 313 313 312 313 313 312 312 311 314 315 313 316 315 313 313 313 314 312
296 296 296 296 296 296 296 297 299 300 301 302 302 305 310 311 311 310 310 309 312 312 312 313 313 314 314 314 314 314 312 312 313 314 313 311 310 312 314 315 322 319 316 313 312 312 313
296 296 296 295 296 296 295 297 298 300 301 303 305 306 312 311 311 309 312 310 310 312 312 312 312 313 314 314 316 317 317 315 315 314 312 312 310 314 318 320 319 319 317 314 313 314 313
296 296 296 295 296 296 295 297 297 299 301 304 309 310 311 310 309 311 311 311 313 312 312 313 313 313 313 315 316 319 316 315 314 314 308 311 310 314 315 320 319 313 317 316 316 322 314
296 297 296 295 295 295 295 296 297 298 299 303 310 310 311 312 311 311 311 312 312 311 311 310 311 311 313 316 316 317 317 312 313 315 316 313 313 314 314 318 314 312 311 315 322 319 310
295 294 296 295 295 295 295 296 296 298 299 302 307 309 311 312 312 312 312 311 311 310 310 311 312 312 313 315 316 316 315 312 312 310 312 313 313 316 315 317 314 311 311 314 311 310 309
295 295 295 295 294 295 295 296 295 297 298 301 304 310 311 311 312 312 312 312 312 312 311 312 312 313 313 316 314 316 316 309 311 313 310 314 312 313 312 312 309 312 311 312 311 310 310
Wind_Speed
25 25 25 26 25 26 26 28 25 19 19 23 21 25 22 18 17 17 13 12 10 7 6 7 8 10 12 11 11 4 5 5 9 22 19 11 8 4 4 3 0 5 3 6 10 14 16
24 26 28 27 25 26 27 25 27 25 21 21 23 22 24 21 17 17 14 12 10 8 7 6 7 9 12 5 12 17 10 7 7 16 19 17 6 6 4 4 3 2 5 8 9 9 14
25 27 27 26 29 28 27 26 25 23 24 19 21 22 24 21 17 17 14 12 9 7 8 8 7 9 13 21 9 11 15 12 12 11 9 7 10 6 3 3 4 5 5 6 8 11 8
26 28 29 30 27 30 29 27 28 24 23 26 18 23 23 22 20 17 14 12 10 9 8 8 8 8 9 7 14 13 17 16 12 10 6 2 4 8 12 5 5 3 3 2 5 6 8
27 28 30 31 30 29 30 31 29 27 24 23 21 17 23 22 22 16 14 11 12 9 9 8 9 8 9 7 10 16 15 9 17 14 10 6 5 4 3 3 3 5 4 4 5 2 4
27 29 29 32 32 31 32 33 29 28 27 23 25 22 22 24 23 20 14 11 10 9 10 8 11 6 9 3 3 8 18 11 9 12 8 8 6 3 3 4 5 4 4 3 5 3 4
26 29 30 31 34 33 33 31 29 29 28 26 27 25 20 26 24 24 19 16 7 4 16 12 8 5 1 6 4 4 8 17 8 8 5 3 4 9 10 7 5 3 3 9 7 10 11
26 29 29 28 32 35 34 32 31 30 27 24 25 24 21 29 26 29 24 21 15 3 4 29 20 14 4 6 3 5 9 12 7 5 4 1 10 8 3 5 7 6 10 12 9 11 9
26 32 32 31 33 35 34 32 32 31 29 25 26 25 25 29 26 35 29 25 14 6 1 6 24 23 14 12 4 11 16 9 4 6 8 10 4 5 8 5 6 6 9 6 10 9 12
31 33 34 33 33 34 32 31 34 33 29 24 25 23 25 29 31 38 34 27 17 5 4 4 5 6 11 13 6 20 19 10 3 10 6 9 10 9 5 4 7 13 7 11 10 4 5
32 32 34 33 33 33 33 29 34 31 30 26 25 24 19 16 16 43 33 30 22 7 2 3 4 3 10 17 4 6 20 10 7 7 6 4 3 6 13 16 7 4 6 8 9 7 6
33 32 32 32 32 33 33 33 32 31 32 26 24 22 22 19 21 41 33 30 22 5 6 5 4 6 8 9 2 5 9 7 2 6 9 7 4 4 5 3 11 2 4 6 4 4 9
34 34 34 32 32 32 31 32 35 30 39 31 21 14 18 35 8 39 38 32 5 4 1 6 5 6 7 6 5 5 8 9 6 4 6 4 16 2 3 3 4 7 5 2 4 6 8
35 35 34 32 31 31 29 31 31 36 38 22 18 12 12 21 17 45 47 5 4 6 5 4 5 8 7 6 4 6 8 8 14 3 1 5 5 12 11 15 6 10 9 4 5 3 4
35 34 33 32 30 30 30 29 29 35 38 25 7 8 13 29 19 49 37 4 8 6 6 8 11 6 7 5 3 6 8 6 8 15 7 4 5 1 5 5 11 5 10 13 7 7 4
35 35 33 32 29 28 30 29 27 33 39 23 11 6 9 26 25 38 11 5 5 5 6 4 5 5 5 8 8 8 7 4 9 15 9 2 6 4 2 7 12 8 2 4 6 6 6
33 34 32 31 28 27 28 27 29 32 36 20 9 3 9 8 32 18 5 4 4 7 10 5 5 4 4 5 7 5 4 4 7 4 16 7 4 1 2 9 13 7 7 6 2 3 3
34 33 32 31 28 27 28 25 28 30 33 22 2 3 14 13 9 4 5 6 5 4 3 2 3 3 7 8 6 4 8 6 8 10 8 9 3 5 12 6 11 14 13 16 7 6 4
34 33 31 29 28 26 27 27 28 27 25 25 9 2 15 42 4 5 3 4 3 4 5 5 5 4 5 6 3 7 4 7 13 10 10 9 5 3 4 0 2 9 12 15 14 3 9
36 32 31 29 27 26 26 28 30 28 28 16 6 2 12 24 2 8 9 5 4 1 3 2 2 4 4 7 8 2 4 4 19 11 11 16 5 7 9 3 3 5 9 15 14 9 16
33 32 30 29 27 27 27 27 30 32 29 7 4 3 3 6 4 9 6 7 8 3 3 6 2 8 5 4 5 7 8 4 6 10 6 6 7 10 20 22 15 11 11 16 20 20 11
31 30 29 29 27 27 26 25 28 32 25 3 1 2 6 12 11 11 6 6 11 7 6 5 7 6 9 6 6 4 4 5 5 9 10 7 6 5 12 15 17 15 20 20 20 22 21
30 28 28 28 26 28 26 26 26 31 24 7 11 8 7 15 7 9 9 6 8 9 8 10 11 7 8 11 18 20 14 9 4 7 10 3 3 3 8 2 10 10 23 22 18 15 17
29 28 27 28 26 27 23 25 26 29 23 16 11 12 2 5 10 10 12 13 6 7 6 2 12 8 3 6 13 8 12 15 11 11 12 5 3 2 6 7 3 3 9 20 24 12 19
29 28 24 26 26 26 23 24 23 27 26 20 12 7 2 4 8 9 7 7 11 8 3 6 16 16 12 4 3 3 2 4 6 11 12 10 3 3 4 5 5 2 2 3 13 11 16
31 28 25 24 24 24 24 23 22 27 27 19 4 2 1 4 9 11 9 6 3 2 1 5 6 7 10 2 3 3 3 1 4 4 2 6 1 0 4 4 4 3 0 5 6 4 17
27 27 25 24 24 25 24 23 22 26 27 20 2 4 1 4 13 20 8 7 6 4 1 1 2 2 9 3 3 4 3 4 2 3 3 3 2 6 6 4 6 2 3 9 2 5 5
28 24 25 23 23 23 25 24 21 23 26 20 3 3 2 4 11 8 13 10 8 7 4 4 1 4 3 4 4 4 4 4 2 4 5 6 5 3 4 3 4 2 5 2 3 5 3
27 24 23 22 22 22 22 22 21 19 22 22 11 5 5 1 4 11 10 9 11 7 8 8 2 1 5 3 2 1 2 2 3 3 1 3 5 3 6 5 3 2 4 7 9 6 3
Wind_Direction
357 353 350 347 340 338 325 305 300 328 279 266 266 265 266 273 290 287 263 255 252 250 261 253 238 223 209 220 233 220 221 217 214 216 210 218 200 176 200 213 285 205 225 269 276 285 280
352 350 348 345 343 342 338 336 320 295 322 271 262 258 262 262 270 286 263 248 245 241 231 250 239 221 215 236 245 234 194 157 155 188 205 209 210 233 261 231 184 239 289 278 276 283 274
352 349 344 343 340 336 332 328 327 306 285 322 260 259 251 256 259 283 260 244 237 248 248 234 242 234 235 241 234 229 190 174 157 169 179 202 221 210 182 247 271 266 293 289 235 243 240
349 348 347 341 336 333 333 327 324 319 291 282 320 250 244 252 249 260 264 240 217 226 238 245 244 252 249 255 243 224 211 206 182 190 200 214 201 234 232 291 331 287 214 318 303 220 234
349 345 343 342 337 331 329 326 324 318 314 297 289 271 241 242 242 241 254 230 217 228 224 228 239 245 262 245 235 210 210 207 216 223 213 223 215 216 163 174 297 194 242 237 315 261 260
343 342 340 340 336 332 328 323 319 318 315 290 292 284 243 234 234 237 229 206 213 214 200 209 231 267 247 233 186 196 212 194 166 180 190 207 206 207 156 173 223 208 231 216 239 323 357
341 344 343 339 334 331 326 322 321 319 314 311 291 280 254 230 227 221 193 179 167 206 200 196 214 227 55 174 166 186 195 184 165 165 174 169 208 213 212 214 254 294 263 272 267 302 305
340 340 333 330 330 330 327 321 320 321 312 304 307 296 269 230 224 211 199 181 198 146 212 229 238 236 174 161 154 187 173 164 166 178 120 194 244 233 253 216 236 243 268 274 284 264 267
337 332 328 331 329 327 324 317 320 319 318 305 296 301 254 226 234 201 195 195 187 192 273 252 229 233 222 230 234 196 183 179 150 163 186 220 203 198 189 202 228 229 235 255 260 291 281
333 331 329 331 328 325 322 316 313 319 318 310 295 291 256 232 203 191 184 186 175 166 51 247 200 239 197 205 261 217 197 172 175 198 173 246 235 232 189 206 193 258 196 234 250 254 256
332 333 328 327 324 325 323 319 317 321 311 321 294 287 253 226 246 177 186 189 189 161 11 141 155 157 165 162 136 175 198 184 165 183 166 221 182 217 230 229 177 248 188 214 234 241 279
327 326 326 325 325 324 323 322 329 322 321 317 294 284 251 256 197 182 185 162 147 62 252 159 136 171 153 200 180 114 174 192 186 211 239 230 204 191 215 253 206 203 216 246 247 253 251
331 330 329 325 323 325 326 327 321 317 322 322 298 267 264 237 261 174 152 147 98 167 43 171 173 171 186 164 199 159 185 188 194 200 214 246 235 191 208 198 177 185 209 241 222 205 241
330 329 331 329 324 326 329 326 324 321 328 324 296 254 245 244 299 166 148 138 141 180 181 108 139 152 178 161 206 195 179 213 213 176 307 221 293 191 189 209 182 187 185 204 222 228 268
328 330 332 331 326 328 333 326 328 329 337 341 319 250 231 235 217 165 154 185 185 182 154 139 144 159 194 193 186 176 224 226 211 184 204 208 262 143 203 180 193 173 209 222 275 268 289
333 333 333 332 328 332 334 329 332 331 336 339 320 206 241 238 185 169 153 173 150 143 122 154 148 178 160 180 182 191 191 216 214 185 189 243 277 209 195 167 251 204 160 197 196 196 228
326 332 335 333 331 333 334 330 331 336 339 344 244 170 167 220 173 179 178 161 147 151 131 147 176 149 171 166 181 196 229 257 203 194 177 168 230 314 174 206 192 184 220 216 297 226 217
333 336 337 334 334 334 335 330 334 341 339 355 172 166 161 189 177 199 163 149 125 135 149 117 119 165 180 167 197 214 226 230 184 142 183 198 222 227 224 232 215 217 211 212 222 224 236
335 336 336 338 335 336 336 331 338 342 343 336 311 124 156 160 153 167 137 116 119 126 169 169 188 203 165 158 208 201 207 247 184 172 173 164 216 270 282 225 189 217 223 215 227 256 224
338 339 338 339 337 341 339 335 338 344 337 326 258 177 136 186 249 168 152 154 109 200 122 156 160 147 159 206 219 241 239 266 188 188 190 178 218 207 247 237 180 210 210 214 216 232 238
341 339 339 341 343 346 342 334 343 345 336 286 224 165 119 170 211 160 126 153 178 160 209 199 218 218 168 224 206 228 223 274 156 199 187 194 256 233 243 247 235 217 204 213 219 226 222
342 339 341 342 341 343 344 342 349 349 355 265 227 102 155 151 153 154 180 162 175 209 203 188 223 200 220 232 213 192 232 189 191 189 192 208 257 245 263 246 231 226 221 223 224 226 232
342 341 339 341 342 343 346 344 350 353 12 0 353 348 182 166 158 161 187 185 211 179 201 236 206 225 254 252 241 255 244 272 264 179 213 233 260 257 277 350 284 240 234 220 223 221 212
341 340 343 339 342 343 346 344 348 355 0 350 317 300 186 165 185 183 159 204 200 202 213 210 219 196 211 227 306 272 240 249 251 236 188 201 206 250 286 305 238 274 288 216 215 217 217
340 339 342 335 340 342 346 342 343 352 351 347 333 295 165 131 177 175 166 187 226 235 215 254 267 249 240 294 279 226 170 268 239 225 203 198 146 296 286 302 279 17 351 103 173 239 226
338 338 340 337 337 341 342 341 342 353 350 352 169 337 333 122 210 170 185 165 147 156 255 219 258 241 224 238 213 231 220 171 305 322 359 195 221 281 323 308 343 316 333 90 88 272 193
337 335 335 335 334 339 341 342 346 352 349 354 167 358 60 90 159 181 175 195 179 174 223 236 193 170 196 204 199 228 244 165 227 215 191 166 184 226 259 282 287 275 199 135 39 298 1
334 334 331 336 334 337 339 343 341 350 349 354 8 42 51 100 176 170 168 166 161 185 170 163 86 201 183 222 193 191 206 221 199 212 188 182 174 206 210 250 314 61 93 233 239 302 337
338 337 334 332 334 334 336 338 336 344 347 350 348 96 145 166 162 196 204 198 205 238 195 179 207 141 232 229 206 185 210 141 189 264 117 225 196 189 185 221 259 271 262 296 305 298 221